| time (UTC) | temp F | wind direction | speed knots | gust knots | rain 1hr in | rain 24hr in | rain mn in | humidity % | barometer mb |
| 20260503231458 | 58 | 160 | 0.0 | 0.9 | 0.00 | 0.00 | 0.00 | 50 | 1016.1 |
| 20260503230954 | 58 | 176 | 0.0 | 0.0 | 0.00 | 0.00 | 0.00 | 52 | 1016.2 |
| 20260503230451 | 58 | 164 | 0.9 | 0.9 | 0.00 | 0.00 | 0.00 | 51 | 1016.2 |
| 20260503225948 | 58 | 154 | 0.9 | 0.9 | 0.00 | 0.00 | 0.00 | 50 | 1016.4 |
| 20260503225445 | 59 | 142 | 0.0 | 0.0 | 0.00 | 0.00 | 0.00 | 52 | 1016.5 |
| 20260503224940 | 59 | 176 | 0.0 | 0.0 | 0.00 | 0.00 | 0.00 | 53 | 1016.4 |
| 20260503224438 | 59 | 147 | 0.0 | 0.0 | 0.00 | 0.00 | 0.00 | 49 | 1016.8 |
| 20260503223935 | 60 | 151 | 0.0 | 0.0 | 0.00 | 0.00 | 0.00 | 50 | 1016.6 |
| 20260503223433 | 60 | 176 | 0.0 | 0.0 | 0.00 | 0.00 | 0.00 | 47 | 1016.6 |
| 20260503222928 | 59 | 176 | 0.0 | 0.0 | 0.00 | 0.00 | 0.00 | 52 | 1016.9 |
| 20260503222427 | 60 | 176 | 0.0 | 0.0 | 0.00 | 0.00 | 0.00 | 54 | 1016.8 |
| 20260503221925 | 60 | 176 | 0.0 | 0.0 | 0.00 | 0.00 | 0.00 | 50 | 1017.0 |
| 20260503221423 | 60 | 176 | 0.9 | 1.7 | 0.00 | 0.00 | 0.00 | 47 | 1016.9 |
| 20260503220920 | 60 | 137 | 0.0 | 0.0 | 0.00 | 0.00 | 0.00 | 46 | 1017.4 |
| 20260503220416 | 60 | 176 | 0.0 | 0.0 | 0.00 | 0.00 | 0.00 | 46 | 1017.2 |
| 20260503215913 | 61 | 176 | 0.0 | 0.0 | 0.00 | 0.00 | 0.00 | 44 | 1017.3 |
| 20260503215410 | 61 | 176 | 0.9 | 0.9 | 0.00 | 0.00 | 0.00 | 43 | 1017.3 |
| 20260503214908 | 62 | 178 | 0.0 | 0.0 | 0.00 | 0.00 | 0.00 | 43 | 1017.3 |
| 20260503214405 | 62 | 178 | 0.0 | 0.0 | 0.00 | 0.00 | 0.00 | 43 | 1017.5 |
| 20260503213902 | 64 | 177 | 1.7 | 1.7 | 0.00 | 0.00 | 0.00 | 40 | 1017.4 |
| 20260503213400 | 64 | 180 | 0.0 | 0.0 | 0.00 | 0.00 | 0.00 | 40 | 1017.4 |
| 20260503212856 | 65 | 138 | 0.0 | 0.9 | 0.00 | 0.00 | 0.00 | 41 | 1017.4 |
| 20260503212354 | 64 | 181 | 0.0 | 0.9 | 0.00 | 0.00 | 0.00 | 40 | 1017.7 |
| 20260503211851 | 65 | 180 | 0.0 | 0.0 | 0.00 | 0.00 | 0.00 | 39 | 1017.7 |
| 20260503211348 | 64 | 181 | 0.0 | 0.0 | 0.00 | 0.00 | 0.00 | 45 | 1017.8 |
| 20260503210843 | 64 | 180 | 1.7 | 1.7 | 0.00 | 0.00 | 0.00 | 40 | 1017.8 |
| 20260503210341 | 65 | 198 | 3.5 | 5.2 | 0.00 | 0.00 | 0.00 | 40 | 1017.8 |
| 20260503205835 | 65 | 177 | 2.6 | 2.6 | 0.00 | 0.00 | 0.00 | 39 | 1017.7 |
| 20260503205332 | 65 | 179 | 0.0 | 0.0 | 0.00 | 0.00 | 0.00 | 46 | 1017.7 |
| 20260503204829 | 66 | 180 | 0.0 | 0.9 | 0.00 | 0.00 | 0.00 | 41 | 1017.8 |
| 20260503204327 | 66 | 234 | 0.0 | 0.9 | 0.00 | 0.00 | 0.00 | 41 | 1017.9 |
| 20260503203823 | 65 | 213 | 0.0 | 0.9 | 0.00 | 0.00 | 0.00 | 42 | 1017.9 |
| 20260503203321 | 65 | 154 | 0.0 | 0.0 | 0.00 | 0.00 | 0.00 | 44 | 1017.9 |
| 20260503202818 | 65 | 178 | 0.0 | 0.9 | 0.00 | 0.00 | 0.00 | 44 | 1017.9 |
| 20260503202316 | 64 | 226 | 1.7 | 1.7 | 0.00 | 0.00 | 0.00 | 43 | 1018.1 |
| 20260503201814 | 64 | 178 | 0.9 | 0.9 | 0.00 | 0.00 | 0.00 | 43 | 1018.1 |
| 20260503201310 | 65 | 123 | 1.7 | 1.7 | 0.00 | 0.00 | 0.00 | 42 | 1018.4 |
| 20260503200808 | 66 | 178 | 0.0 | 0.9 | 0.00 | 0.00 | 0.00 | 45 | 1018.2 |
| 20260503200303 | 65 | 179 | 1.7 | 1.7 | 0.00 | 0.00 | 0.00 | 43 | 1018.4 |
| 20260503195801 | 66 | 159 | 0.0 | 0.0 | 0.00 | 0.00 | 0.00 | 43 | 1018.2 |
| 20260503195257 | 66 | 180 | 0.9 | 0.9 | 0.00 | 0.00 | 0.00 | 46 | 1018.5 |
| 20260503194755 | 65 | 178 | 0.9 | 0.9 | 0.00 | 0.00 | 0.00 | 47 | 1018.5 |
| 20260503194250 | 65 | 166 | 0.0 | 0.0 | 0.00 | 0.00 | 0.00 | 48 | 1018.5 |
| 20260503193747 | 65 | 181 | 0.0 | 0.9 | 0.00 | 0.00 | 0.00 | 48 | 1018.6 |
| 20260503193243 | 64 | 173 | 0.9 | 0.9 | 0.00 | 0.00 | 0.00 | 50 | 1018.4 |
| 20260503192739 | 64 | 171 | 0.0 | 0.0 | 0.00 | 0.00 | 0.00 | 49 | 1018.7 |
| 20260503192234 | 63 | 123 | 0.9 | 0.9 | 0.00 | 0.00 | 0.00 | 49 | 1018.6 |
| 20260503191731 | 64 | 181 | 0.9 | 1.7 | 0.00 | 0.00 | 0.00 | 48 | 1018.8 |
| 20260503191228 | 63 | 225 | 0.9 | 0.9 | 0.00 | 0.00 | 0.00 | 50 | 1018.6 |
| 20260503190725 | 63 | 131 | 0.9 | 0.9 | 0.00 | 0.00 | 0.00 | 47 | 1018.8 |
| 20260503190222 | 64 | 180 | 2.6 | 4.3 | 0.00 | 0.00 | 0.00 | 47 | 1018.9 |
| 20260503185719 | 63 | 125 | 2.6 | 2.6 | 0.00 | 0.00 | 0.00 | 45 | 1019.3 |
| 20260503185214 | 63 | 179 | 2.6 | 4.3 | 0.00 | 0.00 | 0.00 | 45 | 1019.2 |
| 20260503184709 | 63 | 141 | 1.7 | 2.6 | 0.00 | 0.00 | 0.00 | 45 | 1018.9 |
| 20260503184206 | 63 | 177 | 0.9 | 0.9 | 0.00 | 0.00 | 0.00 | 45 | 1019.2 |
| 20260503183702 | 64 | 171 | 0.0 | 0.0 | 0.00 | 0.00 | 0.00 | 44 | 1019.5 |
| 20260503183200 | 63 | 139 | 0.0 | 0.0 | 0.00 | 0.00 | 0.00 | 44 | 1019.3 |
| 20260503182658 | 62 | 140 | 1.7 | 1.7 | 0.00 | 0.00 | 0.00 | 44 | 1019.5 |
| 20260503182156 | 62 | 177 | 0.9 | 1.7 | 0.00 | 0.00 | 0.00 | 44 | 1019.5 |
| 20260503181652 | 62 | 143 | 0.9 | 1.7 | 0.00 | 0.00 | 0.00 | 45 | 1019.5 |
| 20260503181149 | 63 | 136 | 1.7 | 1.7 | 0.00 | 0.00 | 0.00 | 45 | 1019.4 |
| 20260503180646 | 62 | 176 | 0.9 | 0.9 | 0.00 | 0.00 | 0.00 | 47 | 1019.7 |
| 20260503180144 | 63 | 177 | 0.0 | 0.9 | 0.00 | 0.00 | 0.00 | 47 | 1019.5 |
| 20260503175641 | 63 | 175 | 0.0 | 0.9 | 0.00 | 0.00 | 0.00 | 46 | 1019.8 |
| 20260503175138 | 62 | 107 | 2.6 | 4.3 | 0.00 | 0.00 | 0.00 | 46 | 1019.9 |
| 20260503174634 | 62 | 217 | 0.0 | 0.9 | 0.00 | 0.00 | 0.00 | 46 | 1019.8 |
| 20260503174132 | 62 | 107 | 0.9 | 1.7 | 0.00 | 0.00 | 0.00 | 47 | 1020.1 |
| 20260503173626 | 61 | 181 | 0.0 | 0.9 | 0.00 | 0.00 | 0.00 | 48 | 1019.8 |
| 20260503173123 | 61 | 178 | 0.0 | 0.9 | 0.00 | 0.00 | 0.00 | 46 | 1019.9 |
| 20260503172620 | 59 | 174 | 0.0 | 0.0 | 0.00 | 0.00 | 0.00 | 54 | 1019.9 |
| 20260503172118 | 60 | 137 | 0.0 | 0.9 | 0.00 | 0.00 | 0.00 | 45 | 1019.8 |
| 20260503171614 | 60 | 242 | 1.7 | 1.7 | 0.00 | 0.00 | 0.00 | 51 | 1020.0 |
| 20260503171111 | 59 | 107 | 1.7 | 1.7 | 0.00 | 0.00 | 0.00 | 53 | 1020.2 |
| 20260503170609 | 59 | 182 | 0.0 | 0.0 | 0.00 | 0.00 | 0.00 | 50 | 1020.4 |
| 20260503170105 | 59 | 123 | 0.9 | 1.7 | 0.00 | 0.00 | 0.00 | 54 | 1020.4 |
| 20260503151000 | 55 | 177 | 0.0 | 0.9 | 0.00 | 0.00 | 0.00 | 57 | 1021.3 |
| 20260503150456 | 55 | 176 | 0.0 | 0.0 | 0.00 | 0.00 | 0.00 | 60 | 1021.1 |
| 20260503131350 | 48 | 132 | 0.0 | 0.0 | 0.00 | 0.00 | 0.00 | 98 | 1020.8 |
| 20260503130847 | 46 | 161 | 0.0 | 0.0 | 0.00 | 0.00 | 0.00 | 99 | 1020.6 |
| 20260503130344 | 44 | 173 | 0.0 | 0.0 | 0.00 | 0.00 | 0.00 | 99 | 1020.9 |
| 20260503110738 | 37 | 175 | 0.0 | 0.0 | 0.00 | 0.00 | 0.00 | 99 | 1019.8 |
| 20260503110235 | 38 | 175 | 0.0 | 0.0 | 0.00 | 0.00 | 0.00 | 99 | 1019.8 |
| 20260503100201 | 39 | 175 | 0.0 | 0.9 | 0.00 | 0.00 | 0.00 | 99 | 1019.0 |
| 20260503090126 | 39 | 175 | 0.0 | 0.0 | 0.00 | 0.00 | 0.00 | 99 | 1019.0 |
| 20260503081602 | 40 | 175 | 0.0 | 0.0 | 0.00 | 0.00 | 0.00 | 99 | 1018.9 |
| 20260503081059 | 40 | 175 | 0.0 | 0.0 | 0.00 | 0.00 | 0.00 | 99 | 1019.0 |
| 20260503080554 | 40 | 175 | 0.0 | 0.0 | 0.00 | 0.00 | 0.00 | 99 | 1018.6 |
| 20260503072529 | 39 | 175 | 0.0 | 0.0 | 0.00 | 0.00 | 0.00 | 99 | 1018.5 |
| 20260503072026 | 39 | 175 | 0.0 | 0.0 | 0.00 | 0.00 | 0.00 | 99 | 1018.6 |
| 20260503071522 | 39 | 175 | 0.0 | 0.0 | 0.00 | 0.00 | 0.00 | 99 | 1018.5 |
| 20260503071019 | 39 | 175 | 0.0 | 0.0 | 0.00 | 0.00 | 0.00 | 99 | 1018.5 |
| 20260503070516 | 39 | 175 | 0.0 | 0.0 | 0.00 | 0.00 | 0.00 | 99 | 1018.3 |
| 20260503054939 | 39 | 176 | 0.0 | 0.0 | 0.00 | 0.00 | 0.00 | 99 | 1018.2 |
| 20260503054436 | 39 | 176 | 0.0 | 0.0 | 0.00 | 0.00 | 0.00 | 99 | 1018.6 |
| 20260503053934 | 39 | 176 | 0.0 | 0.0 | 0.00 | 0.00 | 0.00 | 99 | 1018.4 |
| 20260503053431 | 39 | 176 | 0.0 | 0.0 | 0.00 | 0.00 | 0.00 | 99 | 1018.4 |
| 20260503052927 | 39 | 176 | 0.0 | 0.0 | 0.00 | 0.00 | 0.00 | 99 | 1018.2 |
| 20260503052425 | 39 | 176 | 0.0 | 0.0 | 0.00 | 0.00 | 0.00 | 99 | 1018.5 |
| 20260503051921 | 39 | 176 | 0.0 | 0.0 | 0.00 | 0.00 | 0.00 | 99 | 1018.3 |
| 20260503051417 | 39 | 176 | 0.0 | 0.0 | 0.00 | 0.00 | 0.00 | 99 | 1018.4 |
| 20260503050915 | 39 | 176 | 0.0 | 0.0 | 0.00 | 0.00 | 0.00 | 99 | 1018.4 |
| 20260503050410 | 40 | 176 | 0.0 | 0.0 | 0.00 | 0.00 | 0.00 | 99 | 1018.2 |
| 20260503045908 | 40 | 176 | 0.0 | 0.0 | 0.00 | 0.04 | 0.04 | 99 | 1018.1 |
| 20260503045405 | 40 | 176 | 0.0 | 0.0 | 0.00 | 0.04 | 0.04 | 99 | 1018.2 |
| 20260503044902 | 40 | 176 | 0.0 | 0.0 | 0.00 | 0.04 | 0.04 | 99 | 1017.9 |
| 20260503044359 | 40 | 176 | 0.0 | 0.0 | 0.00 | 0.04 | 0.04 | 99 | 1018.0 |
| 20260503043856 | 40 | 176 | 0.0 | 0.0 | 0.00 | 0.04 | 0.04 | 99 | 1017.9 |
| 20260503043353 | 40 | 176 | 0.0 | 0.0 | 0.00 | 0.04 | 0.04 | 99 | 1018.0 |
| 20260503042849 | 40 | 176 | 0.0 | 0.0 | 0.00 | 0.04 | 0.04 | 99 | 1018.1 |
| 20260503042346 | 41 | 176 | 0.0 | 0.0 | 0.00 | 0.04 | 0.04 | 99 | 1017.9 |
| 20260503041842 | 41 | 176 | 0.0 | 0.0 | 0.00 | 0.04 | 0.04 | 99 | 1018.1 |
| 20260503041339 | 41 | 176 | 0.0 | 0.0 | 0.00 | 0.04 | 0.04 | 99 | 1017.9 |
| 20260503040837 | 42 | 176 | 0.0 | 0.0 | 0.00 | 0.04 | 0.04 | 99 | 1017.9 |
| 20260503040334 | 42 | 176 | 0.0 | 0.0 | 0.00 | 0.04 | 0.04 | 99 | 1017.8 |
| 20260503035831 | 42 | 176 | 0.0 | 0.0 | 0.00 | 0.04 | 0.04 | 99 | 1017.8 |
| 20260503035328 | 42 | 176 | 0.0 | 0.0 | 0.00 | 0.04 | 0.04 | 99 | 1018.1 |
| 20260503034825 | 43 | 176 | 0.0 | 0.0 | 0.00 | 0.04 | 0.04 | 99 | 1017.8 |
| 20260503034323 | 43 | 176 | 0.0 | 0.0 | 0.00 | 0.04 | 0.04 | 99 | 1017.8 |
| 20260503033820 | 43 | 176 | 0.0 | 0.0 | 0.00 | 0.04 | 0.04 | 99 | 1017.9 |
| 20260503033317 | 43 | 176 | 0.0 | 0.0 | 0.00 | 0.04 | 0.04 | 99 | 1017.7 |
| 20260503032815 | 43 | 176 | 0.0 | 0.0 | 0.00 | 0.04 | 0.04 | 99 | 1018.0 |
| 20260503032314 | 43 | 176 | 0.0 | 0.0 | 0.00 | 0.04 | 0.04 | 99 | 1017.8 |
| 20260503031810 | 43 | 176 | 0.0 | 0.0 | 0.00 | 0.04 | 0.04 | 99 | 1018.0 |
| 20260503031309 | 43 | 176 | 0.0 | 0.0 | 0.00 | 0.04 | 0.04 | 99 | 1017.6 |
| 20260503030804 | 43 | 176 | 0.0 | 0.0 | 0.00 | 0.04 | 0.04 | 99 | 1017.8 |
| 20260503030301 | 43 | 176 | 0.0 | 0.0 | 0.00 | 0.04 | 0.04 | 99 | 1017.9 |
| 20260503025758 | 42 | 176 | 0.0 | 0.0 | 0.00 | 0.04 | 0.04 | 99 | 1017.8 |
| 20260503025255 | 42 | 176 | 0.0 | 0.0 | 0.00 | 0.04 | 0.04 | 99 | 1017.7 |
| 20260503024752 | 42 | 176 | 0.0 | 0.0 | 0.07 | 0.04 | 0.04 | 99 | 1017.6 |
| 20260503024249 | 42 | 176 | 0.0 | 0.0 | 0.07 | 0.04 | 0.04 | 99 | 1017.4 |
| 20260503023746 | 42 | 176 | 0.0 | 0.0 | 0.00 | 0.03 | 0.03 | 99 | 1017.7 |
| 20260503023243 | 42 | 176 | 0.0 | 0.0 | 0.00 | 0.03 | 0.03 | 99 | 1017.6 |
| 20260503022739 | 43 | 176 | 0.0 | 0.0 | 0.00 | 0.03 | 0.03 | 99 | 1017.4 |
| 20260503022234 | 43 | 176 | 0.0 | 0.0 | 0.00 | 0.03 | 0.03 | 99 | 1017.4 |
| 20260503021731 | 43 | 176 | 0.0 | 0.0 | 0.00 | 0.03 | 0.03 | 99 | 1017.8 |
| 20260503021227 | 43 | 176 | 0.0 | 0.0 | 0.00 | 0.03 | 0.03 | 99 | 1017.7 |
| 20260503020725 | 43 | 176 | 0.0 | 0.0 | 0.00 | 0.03 | 0.03 | 99 | 1017.6 |
| 20260503020222 | 44 | 176 | 0.0 | 0.0 | 0.00 | 0.03 | 0.03 | 99 | 1017.7 |
| 20260503015719 | 44 | 176 | 0.0 | 0.0 | 0.00 | 0.03 | 0.03 | 99 | 1017.7 |
| 20260503015216 | 44 | 176 | 0.0 | 0.0 | 0.00 | 0.03 | 0.03 | 99 | 1017.8 |
| 20260503014711 | 44 | 176 | 0.0 | 0.0 | 0.00 | 0.03 | 0.03 | 98 | 1017.6 |
| 20260503014210 | 45 | 176 | 0.0 | 0.0 | 0.00 | 0.03 | 0.03 | 98 | 1017.6 |
| 20260503013706 | 45 | 176 | 0.0 | 0.0 | 0.00 | 0.03 | 0.03 | 98 | 1017.5 |
| 20260503013204 | 45 | 176 | 0.0 | 0.0 | 0.00 | 0.03 | 0.03 | 98 | 1017.5 |
| 20260503012701 | 45 | 176 | 0.0 | 0.0 | 0.00 | 0.03 | 0.03 | 98 | 1017.6 |
| 20260503012158 | 45 | 176 | 0.0 | 0.0 | 0.00 | 0.03 | 0.03 | 98 | 1017.4 |
| 20260503011654 | 45 | 176 | 0.0 | 0.0 | 0.00 | 0.03 | 0.03 | 97 | 1017.5 |
| 20260503011152 | 46 | 176 | 0.0 | 0.0 | 0.00 | 0.03 | 0.03 | 97 | 1017.5 |
| 20260503010648 | 46 | 176 | 0.0 | 0.0 | 0.00 | 0.03 | 0.03 | 95 | 1017.4 |
| 20260503010145 | 46 | 175 | 0.0 | 0.0 | 0.00 | 0.03 | 0.03 | 95 | 1017.5 |
| 20260503005642 | 46 | 175 | 0.0 | 0.0 | 0.07 | 0.03 | 0.03 | 94 | 1017.4 |
| 20260503005139 | 47 | 175 | 0.0 | 0.0 | 0.12 | 0.03 | 0.03 | 93 | 1017.3 |
| 20260503004636 | 47 | 175 | 0.0 | 0.0 | 0.12 | 0.03 | 0.03 | 92 | 1017.3 |
| 20260503004134 | 47 | 175 | 0.0 | 0.0 | 0.07 | 0.01 | 0.01 | 90 | 1017.2 |
| 20260503003631 | 48 | 175 | 0.0 | 0.0 | 0.00 | 0.00 | 0.00 | 89 | 1017.2 |
| 20260503003128 | 48 | 175 | 0.9 | 0.9 | 0.00 | 0.00 | 0.00 | 86 | 1016.7 |
| 20260503002625 | 48 | 175 | 0.0 | 0.9 | 0.00 | 0.00 | 0.00 | 84 | 1016.6 |
| 20260503002121 | 49 | 175 | 0.0 | 0.0 | 0.00 | 0.00 | 0.00 | 80 | 1016.3 |
| 20260503001617 | 49 | 176 | 0.0 | 0.0 | 0.00 | 0.00 | 0.00 | 79 | 1016.0 |
| 20260503001115 | 49 | 175 | 0.0 | 0.0 | 0.00 | 0.00 | 0.00 | 79 | 1016.1 |
| 20260503000612 | 49 | 175 | 0.0 | 0.9 | 0.00 | 0.00 | 0.00 | 78 | 1015.9 |
| 20260503000109 | 49 | 175 | 0.0 | 0.0 | 0.00 | 0.00 | 0.00 | 78 | 1015.6 |
| 20260502235606 | 50 | 175 | 0.9 | 0.9 | 0.00 | 0.00 | 0.00 | 77 | 1015.6 |
| 20260502235104 | 50 | 175 | 0.9 | 0.9 | 0.00 | 0.00 | 0.00 | 76 | 1015.6 |
| 20260502234559 | 51 | 175 | 0.0 | 0.0 | 0.00 | 0.00 | 0.00 | 74 | 1015.7 |
| 20260502234057 | 51 | 175 | 0.0 | 0.0 | 0.00 | 0.00 | 0.00 | 72 | 1015.7 |
| 20260502233557 | 52 | 176 | 0.0 | 0.0 | 0.00 | 0.00 | 0.00 | 69 | 1015.6 |
| 20260502233055 | 53 | 176 | 0.0 | 0.0 | 0.00 | 0.00 | 0.00 | 66 | 1015.6 |
| 20260502232551 | 54 | 175 | 0.0 | 0.0 | 0.00 | 0.00 | 0.00 | 62 | 1015.4 |
| 20260502232048 | 54 | 175 | 0.0 | 0.0 | 0.00 | 0.00 | 0.00 | 62 | 1015.7 |